Location: Добрич
(43.6638°N, 27.9002°E)
Time: 05:36:56
(UTC+03:00)

ISS - Pass Details

Date: 26 April 2026
Orbit: 414 x 424 km, 51.6° (Epoch: 15 May)

Event Time Altitude Azimuth Distance (km) Brightness Sun altitude
Exits shadow 03:26:57 36° 53° (NE) 687 -2.2 -24.5°
Drops below altitude 10° 03:29:04 10° 57° (ENE) 1,502 0.0 -24.2°
Sets 03:31:11 0° 58° (ENE) 2,371 1.3 -24.0°
